Location: Beang
(6.6177°N, 10.9863°W)
Time: 00:31:56
(UTC+00:00)

Cosmos 2219 Rocket - Pass Details

Date: 07 June 2020
Orbit: 828 x 847 km, 71.0° (Epoch: 13 July)

Event Time Altitude Azimuth Distance (km) Brightness Sun altitude
Exits shadow 04:23:25 13° 328° (NNW) 2,235 4.4 -28.6°
Drops below altitude 10° 04:24:10 10° 334° (NNW) 2,423 4.6 -28.4°
Sets 04:27:14 0° 351° (N) 3,354 5.6 -27.8°
